DMSP 5D-2 F13 DEB, 40577

Orbit data source: Space-Track

DMSP 5D-2 F13 DEB, 40577 is space debris in SSO originally from a launch on Fri, 24 Mar 1995 UTC launched from the Air Force Western Test Range (AFWTR). Debris objects in space refer to the collection of defunct objects orbiting the Earth. Examples of debris include non-operational satellites, rocket bodies, and fragments generated from explosions, collisions, or faulty payload assembly.

Loading next visibility...
DMSP 5D-2 F13 DEB details
Identifier
40577, 1995-015EL
Orbit
SSO
Last TLE update14 hours ago
Origin
Flag of USUSAF SMC (US)
ManufacturerUnknown
MissionSpacecraft
Bus & MotorUnknown
MassUnknown
Launch date (UTC)
1995-03-24 (30 years ago)
Launch vehicleUnknown
Launch site
Air Force Western Test Range (AFWTR)
Object type
Payload
Rocket body
Debris
Shape & HBRUnknown
Radar Cross SectionSmall (<0.1 m²)

Expand to show TLE details & history

TLE from 14 hours ago
0 DMSP 5D-2 F13 DEB
1 40577U 95015EL  24338.79395342  .00016461  00000-0  51991-2 0  9990
2 40577  98.6832   5.9061 0014607  60.2966 299.9673 14.40217422502547
Epoch: 2024-12-03T19:03Z
Definitive object data (Epoch: 2024-12-03T19:03:17.575Z)
Latitude-0.00008°
Longitude6.98453°
Altitude755.527 km
Speed7.479 km/s
True Right ascension00h 23m 37s
True Declination0° 00' 00"
Sunlit
Object was in daylight at TLE epoch
Visualization TLE readout
Latitude21.87515°
Longitude-168.92452°
Altitude762.087 km
Speed7.474 km/s
Apparent Right ascension15h 13m 19s
Apparent Declination-10° 16' 29"
Sunlit
Object is in daylight
Visualization observer readout
Local Sidereal Time07:01:36
Azimuth75.967° E
Elevation-31.649°
Doppler factor1
Orbital elements
Apogee altitude765.33 km
Perigee altitude744.491 km
Semi-major axis7,133.048 km
Eccentricity0.0014607
Inclination98.6832°
RAAN5.9061°
Arg. of periapsis60.2966°
True anomaly299.82216°
Mean anomaly299.9673°
Eccentric anomaly299.89474°
Mean motion3.60272 °/min
BSTAR0.0051991
Orbital period99.92 mins
Loading maneuver chart data...

DMSP 5D-2 F13 DEB Visibility forecast

Observer location: undefined°, undefined

Span
Click to sort rows by Start time (UTC) header in descending order
Start Az.
Max El. time (UTC)
Max El. Az.
Max El.
End time (UTC)
End Az.
7 mins2024-12-04 13:59:22.743Z44.758° NE2024-12-04 14:03:22.743Z103.623° ESE22.268°2024-12-04 14:06:22.743Z144.698° SSE
7 mins2024-12-04 15:38:22.743Z349.614° N2024-12-04 15:41:22.743Z302.114° NW30.383°2024-12-04 15:45:22.743Z230.813° WSW
6 mins2024-12-05 01:13:22.743Z116.084° SE2024-12-05 01:16:22.743Z58.599° ENE27.627°2024-12-05 01:19:22.743Z12.857° NNE
6 mins2024-12-05 02:52:22.743Z222.152° SW2024-12-05 02:54:22.743Z255.836° W24.608°2024-12-05 02:58:22.743Z317.94° NNW
|